Regional Weather Roundup
Issued by NWS New Orleans/Baton Rouge, LA

Home | Current Version | Previous Version | Graphics & Text | Print | Product List | Glossary On
Versions: 1 2 3 4 5 6 7 8 9 10 11 12 13 14 15 16 17 18 19 20 21 22 23 24 25 26 27 28 29 30 31 32 33 34 35 36 37 38 39 40 41 42 43 44 45 46 47 48 49 50
531
ASUS44 KLIX 201105
RWRLIX
NEW ORLEANS REGIONAL WEATHER ROUNDUP
NATIONAL WEATHER SERVICE NEW ORLEANS LA
600 AM CDT SUN APR 20 2014

NOTE: "FAIR" INDICATES FEW OR NO CLOUDS BELOW 12,000 FEET WITH NO
      SIGNIFICANT WEATHER AND/OR OBSTRUCTIONS TO VISIBILITY.
      SKY/WX - SKY CONDITION AND SIGNIFICANT WEATHER.
      TMP - AIR TEMPERATURE.     DP    - DEWPOINT TEMPERATURE.
      RH  - RELATIVE HUMIDITY.   PRES  - PRESSURE.
      HI  - HEAT INDEX.          WCI   - WIND CHILL INDEX.

*  THESE STATIONS ARE NOT NWS OR FAA STATIONS AND ARE NOT UNDER
   NWS QUALITY CONTROL.

LAZ038-040-048-061>063-065>067-069-201200-
SOUTHEAST LOUISIANA

CITY           SKY/WX    TMP DP  RH WIND       PRES   REMARKS
N.O. AUDUBON   NOT AVBL
N.O. INTL ARPT PTCLDY    60  57  89 CALM      30.13R
N.O. LAKEFRONT CLEAR     64  56  75 NE10      30.14R
N.O. DOWNTOWN*   N/A     64  54  68 CALM      30.14R
SLIDELL        CLEAR     51  49  92 CALM      30.14R
BATON ROUGE    CLEAR     55  51  86 CALM      30.14R
BOOTHVILLE     CLEAR     62  59  90 E3        30.14R
BELLE CHASSE   CLEAR     53  50  89 CALM      30.13R FOG
BOGALUSA*        N/A     50  47  90 CALM      30.16S
GALLIANO*      FOG       54  53  95 CALM      30.13R VSB 1
NEW ROADS*       N/A     54  53  97 CALM      30.15R
GONZALES*        N/A     55  55  99 CALM      30.13S
HAMMOND*       CLEAR     52  50  93 CALM      30.16R
HOUMA*           N/A     55  53  94 CALM      30.13S FOG
PORT FOURCHON* SUNNY     64  63  94 NW6       30.14S

$$

MSZ070-080>082-201200-
SOUTHERN MISSISSIPPI

CITY           SKY/WX    TMP DP  RH WIND       PRES   REMARKS
MCCOMB         CLEAR     50  48  93 CALM      30.15R
GULFPORT       CLEAR     57  52  83 CALM      30.14R
BILOXI         CLEAR     58  54  86 E7        30.15R
PASCAGOULA     CLEAR     51  51 100 CALM      30.16R FOG

$$

COASTAL OBSERVATIONS
LAKE AND NEARSHORE STATIONS

STATION/POSITION TIME  TEMP    WIND        PRES    WAVE
                       AIR SEA DIR/SP/G            HT/PER
                 (UTC) (F)     (DEG/KT/KT) (MB)    (FT/S)
PASCAGOULA       1100   59      30/  5/  6 1020.3
WAVELAND YACHT   1100   60 68   70/  9/ 10 1019.8
GRAND ISLE       1100   65 68  330/  5/  6 1020.5
SOUTHWEST PASS   1100   62 58   50/  7/  7 1020.4
NEW CANAL        1100   66 67   60/  9/ 10 1020.7
SHELL BEACH      1100   65 65  100/  6/  7 1020.2

OFFSHORE STATIONS

STATION/POSITION TIME  TEMP    WIND        PRES    WAVE
                       AIR SEA DIR/SP/G            HT/PER
                 (UTC) (F)     (DEG/KT/KT) (MB)    (FT/S)
64 S DAUPHIN ISL 1048   67 70   30/ 10/ 12 1020.2

$$




USA.gov is the U.S. government's official web portal to all federal, state and local government web resources and services.